Regional Weather Roundup
Issued by NWS

Home | Current Version | Previous Version | Text Only | Print | Product List | Glossary On
Versions: 1 2 3 4 5 6 7 8 9 10 11 12 13 14 15 16 17 18 19 20 21 22 23 24 25 26 27 28 29 30 31 32 33 34 35 36 37 38 39 40 41 42 43 44 45 46 47 48 49 50
000
ASUS45 KBOI 301010
RWRID
WEATHER ROUNDUP FOR IDAHO
NATIONAL WEATHER SERVICE BOISE ID
300 AM MST FRI JAN 30 2015

NOTE: "FAIR" INDICATES FEW OR NO CLOUDS BELOW 12000 FEET
WITH NO SIGNIFICANT WEATHER AND/OR OBSTRUCTIONS TO VISIBILITY

IDZ012-014-301100-
SOUTHWEST IDAHO


CITY           SKY/WX    TMP DP  RH WIND       PRES   REMARKS
BOISE          PTCLDY    31  28  89 S5        30.30S WCI  26
CALDWELL       CLOUDY    37  28  70 W6        30.32F WCI  33
MOUNTAIN HOME  CLOUDY    36  32  88 N2        30.29R
$$

IDZ016-017-301100-
SOUTHCENTRAL IDAHO


CITY           SKY/WX    TMP DP  RH WIND       PRES   REMARKS
BURLEY         CLOUDY    33  29  85 E3        30.24S
JEROME         CLOUDY    32  29  88 E5        30.27S WCI  27
TWIN FALLS     CLOUDY    35  32  88 S5        30.26S WCI  31
$$

IDZ019>023-301100-
SOUTHEAST IDAHO


CITY           SKY/WX    TMP DP  RH WIND       PRES   REMARKS
IDAHO FALLS    PTCLDY    29  25  85 N8        30.26S WCI  21
POCATELLO      CLEAR     27  27 100 W5        30.26R WCI  22
REXBURG        MOCLDY    23  21  92 NE5       30.26S WCI  17
$$

IDZ006-010-011-018-031-032-301100-
CENTRAL IDAHO MOUNTAINS


CITY           SKY/WX    TMP DP  RH WIND       PRES   REMARKS
MCCALL         FOG       14  12  92 CALM      30.26S VSB 3/4
HAILEY         MOCLDY    27  19  74 NW12      30.28R WCI  16
STANLEY          N/A     10   6  84 CALM      30.31R
SALMON         CLOUDY    23  19  86 CALM      30.37S
CHALLIS        CLOUDY    28  23  81 N3        30.34S
$$

IDZ002-004-006-007-026-301100-
NORTHERN IDAHO


CITY           SKY/WX    TMP DP  RH WIND       PRES   REMARKS
LEWISTON       CLOUDY    38  35  89 CALM      30.38S
LOWELL           N/A     31  29  92 CALM      30.42S
COEUR D`ALENE  CLOUDY    30  28  93 NE9       30.35F WCI  22
MULLAN PASS    CLEAR     29  22  75 NW7       30.26S WCI  22
$$


USA.gov is the U.S. government's official web portal to all federal, state and local government web resources and services.